OPS 4682 DEB, 38382

Orbit data source: Space-Track

OPS 4682 DEB, 38382 is space debris in LEO originally from a launch on Sat, 03 Apr 1965 UTC launched from the Air Force Western Test Range (AFWTR). Debris objects in space refer to the collection of defunct objects orbiting the Earth. Examples of debris include non-operational satellites, rocket bodies, and fragments generated from explosions, collisions, or faulty payload assembly.

Loading next visibility...
Identifier
38382, 1965-027CK
Orbit
LEO
Country
Flag of USUS
Related business
Manufacturer
Unknown
Mission
Spacecraft
Bus & Motor
Unknown
Mass
Unknown
Launch date (UTC)
1965-04-03 (61 years ago)
Launch vehicle
Unknown
Launch site
Air Force Western Test Range (AFWTR)
Object type
Payload
Rocket body
Debris
Shape & HBR
Unknown shape, 0.1 m
Radar Cross Section
Small (<0.1 m²)

Expand to show TLE details & history
Last TLE update: 6 days ago

TLE from 6 days ago
0 OPS 4682 DEB
1 38382U 65027CK  26144.38366677  .00000487  00000-0  16690-2 0  9990
2 38382  90.2508   8.4287 0023977 227.1627 132.7479 12.96772641 59343
Epoch: 2026-05-24T09:12Z
TLE epoch observation values (Epoch: 2026-05-24T09:12:28.808Z)
Latitude
-0.00002°
Longitude
-11.67793°
Altitude
1,290.118 km
Speed
7.205 km/s
True Right ascension
00h 33m 42s
True Declination
0° 00' 00"
Sunlit
Object was in daylight at epoch
Visualization orbit readout
Latitude
Unknown
Longitude
Unknown
Altitude
Unknown
Speed
Unknown
Apparent Right ascension
Unknown
Apparent Declination
Unknown
Sunlit
N/A
Visualization observer readout
Local Sidereal Time
02:48:41
Azimuth
Unknown
Elevation
Unknown
Doppler factor
Unknown
Orbital elements
Apogee altitude
1,290.232 km
Perigee altitude
1,253.547 km
Semi-major axis
7,650.027 km
Eccentricity
0.0024
Inclination
90.2508°
RAAN
8.4287°
Arg. of periapsis
227.1627°
True anomaly
132.94926°
Mean anomaly
132.7479°
Eccentric anomaly
132.84862°
Mean motion
3.24376 °/min
Orbital period
110.98 mins
BSTAR
0.001669
Loading maneuver chart data...
Computing Atmospheric mass density...
Loading historical data...
Loading historical data...
Loading historical data...
Loading historical data...
Loading historical data...
Loading historical data...
Loading historical data...

Documentation

Showing up to 5 results
|